,,Stat1,,Stat2,,Stat3,,Stat4,,Wind1,,Wind1,
time,status,PR1M_SUM,status,RH1M_AVG,status,SR1M_AVG,status,TA1M_AVG,status,W1dAve1m,status,W1sAve1m,
1999-12-13, 00:01:00,VALID,0,VALID,88.5545,VALID,-0.0169808,VALID,17.6798,VALID,90,VALID,0,
1999-12-13, 00:02:00,VALID,0,VALID,87.6784,VALID,-0.0169808,VALID,17.7735,VALID,90,VALID,0,
1999-12-13, 00:03:00,VALID,0,VALID,88.4782,VALID,-0.0169808,VALID,17.7089,VALID,70,VALID,0,
1999-12-13, 00:04:00,VALID,0,VALID,88.4782,VALID,0,VALID,17.7089,VALID,87,VALID,0,
1999-12-13, 00:05:01,VALID,0,VALID,88.4198,VALID,0,VALID,17.7061,VALID,117,VALID,0,
1999-12-13, 00:06:00,VALID,0,VALID,88.6957,VALID,-0.0169808,VALID,17.6669,VALID,101,VALID,0,
1999-12-13, 00:07:00,VALID,0,VALID,89.0339,VALID,0,VALID,17.573,VALID,95,VALID,0,
1999-12-13, 00:08:00,VALID,0,VALID,89.0378,VALID,0,VALID,17.5081,VALID,96,VALID,0.507196,
1999-12-13, 00:09:00,VALID,0,VALID,89.0505,VALID,-0.0169808,VALID,17.5277,VALID,97,VALID,1.27159,
1999-12-13, 00:10:00,VALID,0,VALID,88.9767,VALID,-0.0169808,VALID,17.5768,VALID,98,VALID,0.612331,
1999-12-13, 00:11:00,VALID,0,VALID,88.9564,VALID,-0.0169808,VALID,17.5575,VALID,98,VALID,0.0853207,
1999-12-13, 00:12:00,VALID,0,VALID,88.9526,VALID,-0.0169808,VALID,17.5185,VALID,114,VALID,0,
1999-12-13, 00:13:00,VALID,0,VALID,89.231,VALID,-0.0169808,VALID,17.4241,VALID,111,VALID,0,
1999-12-13, 00:14:00,VALID,0,VALID,89.8274,VALID,0,VALID,17.3571,VALID,110,VALID,0,
1999-12-13, 00:15:01,VALID,0,VALID,89.7448,VALID,-0.0339617,VALID,17.3211,VALID,107,VALID,0,
1999-12-13, 00:16:01,VALID,0,VALID,90.1847,VALID,0,VALID,17.2886,VALID,96,VALID,0.0785714,
1999-12-13, 00:17:00,VALID,0,VALID,89.8897,VALID,0.0169808,VALID,17.3377,VALID,113,VALID,0.205236,
1999-12-13, 00:18:00,VALID,0,VALID,89.8897,VALID,0,VALID,17.3244,VALID,119,VALID,0.590345,
1999-12-13, 00:19:00,VALID,0,VALID,89.0962,VALID,0.0169808,VALID,17.3597,VALID,92,VALID,0.62642,
1999-12-13, 00:20:00,VALID,0,VALID,88.6448,VALID,0,VALID,17.3601,VALID,99,VALID,0.324836,
1999-12-13, 00:21:00,VALID,0,VALID,88.3625,VALID,-0.0169808,VALID,17.4349,VALID,91,VALID,0.106908,
1999-12-13, 00:22:00,VALID,0,VALID,88.0866,VALID,-0.0169808,VALID,17.4801,VALID,97,VALID,0.117399,
1999-12-13, 00:23:00,VALID,0,VALID,87.9454,VALID,-0.0339617,VALID,17.5118,VALID,88,VALID,0.0664063,
1999-12-13, 00:24:00,VALID,0,VALID,87.6504,VALID,0,VALID,17.5538,VALID,108,VALID,0,
1999-12-13, 00:25:00,VALID,0,VALID,87.9721,VALID,-0.0169808,VALID,17.5637,VALID,159,VALID,0,
1999-12-13, 00:26:00,VALID,0,VALID,88.4236,VALID,0,VALID,17.5829,VALID,219,VALID,0.00111607,
1999-12-13, 00:27:01,VALID,0,VALID,87.4559,VALID,0,VALID,17.6025,VALID,111,VALID,0.416992,
1999-12-13, 00:28:00,VALID,0,VALID,87.4165,VALID,0,VALID,17.515,VALID,28,VALID,0.419975,
1999-12-13, 00:29:00,VALID,0,VALID,87.5436,VALID,-0.0169808,VALID,17.5314,VALID,18,VALID,0.0405273,
1999-12-13, 00:30:00,VALID,0,VALID,87.5067,VALID,0,VALID,17.5344,VALID,117,VALID,0.204814,
1999-12-13, 00:31:00,VALID,0,VALID,87.5055,VALID,-0.0169808,VALID,17.5245,VALID,122,VALID,0.369792,
1999-12-13, 00:32:00,VALID,0,VALID,87.4597,VALID,-0.0169808,VALID,17.4872,VALID,42,VALID,0.047309,
1999-12-13, 00:33:00,VALID,0,VALID,87.4953,VALID,-0.0169808,VALID,17.4314,VALID,48,VALID,0,
1999-12-13, 00:34:00,VALID,0,VALID,87.7255,VALID,-0.0339617,VALID,17.4224,VALID,113,VALID,0.174479,
1999-12-13, 00:35:00,VALID,0,VALID,87.9836,VALID,-0.0509425,VALID,17.3868,VALID,126,VALID,0.289485,
1999-12-13, 00:36:00,VALID,0,VALID,88.0395,VALID,-0.0169808,VALID,17.3028,VALID,112,VALID,0.530078,
1999-12-13, 00:37:00,VALID,0,VALID,87.9493,VALID,-0.0509425,VALID,17.2576,VALID,86,VALID,0.392736,
1999-12-13, 00:38:01,VALID,0,VALID,87.9772,VALID,-0.0339617,VALID,17.2869,VALID,114,VALID,0.255962,
1999-12-13, 00:39:00,VALID,0,VALID,87.8869,VALID,-0.0339617,VALID,17.2705,VALID,120,VALID,0.13534,
1999-12-13, 00:40:00,VALID,0,VALID,87.8412,VALID,-0.0679233,VALID,17.2315,VALID,120,VALID,0.257813,
1999-12-13, 00:41:00,VALID,0,VALID,88.1171,VALID,-0.0679233,VALID,17.2283,VALID,95,VALID,0.516602,
1999-12-13, 00:42:00,VALID,0,VALID,87.6568,VALID,-0.0169808,VALID,17.2707,VALID,116,VALID,0.543285,
1999-12-13, 00:43:00,VALID,0,VALID,87.3745,VALID,-0.0169808,VALID,17.2449,VALID,97,VALID,0.944285,
1999-12-13, 00:44:00,VALID,0,VALID,87.6403,VALID,-0.0339617,VALID,17.2158,VALID,96,VALID,0.968533,
1999-12-13, 00:45:00,VALID,0,VALID,87.3656,VALID,-0.0509425,VALID,17.2645,VALID,119,VALID,0.773838,
1999-12-13, 00:46:00,VALID,0,VALID,87.1291,VALID,-0.0339617,VALID,17.339,VALID,146,VALID,0.333615,
1999-12-13, 00:47:00,VALID,0,VALID,87.2829,VALID,0,VALID,17.358,VALID,103,VALID,0.654561,
1999-12-13, 00:48:00,VALID,0,VALID,87.3325,VALID,-0.0509425,VALID,17.2998,VALID,122,VALID,0.0882813,
1999-12-13, 00:49:01,VALID,0,VALID,87.4966,VALID,-0.0169808,VALID,17.277,VALID,120,VALID,0.241982,
1999-12-13, 00:50:00,VALID,0,VALID,87.1787,VALID,-0.0339617,VALID,17.2998,VALID,122,VALID,0.180743,
1999-12-13, 00:51:00,VALID,0,VALID,87.2257,VALID,-0.0509425,VALID,17.313,VALID,120,VALID,0.297656,
1999-12-13, 00:52:00,VALID,0,VALID,87.5551,VALID,-0.0849042,VALID,17.2964,VALID,112,VALID,0.208615,
1999-12-13, 00:53:00,VALID,0,VALID,87.7496,VALID,-0.0509425,VALID,17.2673,VALID,112,VALID,0.392525,
1999-12-13, 00:54:00,VALID,0,VALID,88.0408,VALID,-0.0509425,VALID,17.1869,VALID,102,VALID,0.205322,
1999-12-13, 00:55:00,VALID,0,VALID,88.14,VALID,-0.0679233,VALID,17.1191,VALID,103,VALID,0.788446,
1999-12-13, 00:56:00,VALID,0,VALID,88.1082,VALID,-0.0849042,VALID,17.054,VALID,91,VALID,0.871311,
1999-12-13, 00:57:00,VALID,0,VALID,87.976,VALID,-0.0339617,VALID,17.0995,VALID,82,VALID,0.743877,
1999-12-13, 00:58:01,VALID,0,VALID,87.6517,VALID,-0.0679233,VALID,17.1738,VALID,113,VALID,0.273849,
1999-12-13, 00:59:00,VALID,0,VALID,87.5411,VALID,-0.0509425,VALID,17.1992,VALID,106,VALID,0.394817,
1999-12-13, 01:00:01,VALID,0,VALID,87.7763,VALID,-0.0509425,VALID,17.2257,VALID,111,VALID,0.737689,
1999-12-13, 01:01:00,VALID,0,VALID,88.3574,VALID,-0.0509425,VALID,17.1354,VALID,104,VALID,0.670436,
1999-12-13, 01:02:00,VALID,0,VALID,88.9767,VALID,-0.0679233,VALID,17.0318,VALID,100,VALID,0.243608,
1999-12-13, 01:03:00,VALID,0,VALID,89.3226,VALID,-0.0679233,VALID,17.0122,VALID,105,VALID,0.0222356,
1999-12-13, 01:04:00,VALID,0,VALID,89.4498,VALID,-0.0339617,VALID,16.9931,VALID,111,VALID,0.292725,
1999-12-13, 01:05:00,VALID,0,VALID,89.6074,VALID,-0.0509425,VALID,16.9314,VALID,92,VALID,0.772236,
1999-12-13, 01:06:00,VALID,0,VALID,90.0296,VALID,-0.0339617,VALID,16.9153,VALID,74,VALID,0.351563,
1999-12-13, 01:07:00,VALID,0,VALID,89.5362,VALID,-0.0339617,VALID,16.9769,VALID,89,VALID,0.491477,
1999-12-13, 01:08:00,VALID,0,VALID,88.9564,VALID,-0.0339617,VALID,17.0122,VALID,123,VALID,0.413651,
1999-12-13, 01:09:00,VALID,0,VALID,88.7326,VALID,-0.0509425,VALID,16.9541,VALID,99,VALID,1.19447,
1999-12-13, 01:10:00,VALID,0,VALID,88.4897,VALID,-0.0509425,VALID,16.9767,VALID,95,VALID,1.20753,
1999-12-13, 01:11:00,VALID,0,VALID,88.5965,VALID,-0.0509425,VALID,17.0252,VALID,96,VALID,1.07813,
1999-12-13, 01:12:00,VALID,0,VALID,88.6321,VALID,-0.0339617,VALID,17.054,VALID,92,VALID,0.927284,
1999-12-13, 01:13:00,VALID,0,VALID,88.3829,VALID,0.0169808,VALID,17.0861,VALID,96,VALID,1.2582,
1999-12-13, 01:14:00,VALID,0,VALID,87.92,VALID,-0.0169808,VALID,17.2126,VALID,89,VALID,0.764955,
1999-12-13, 01:15:00,VALID,0,VALID,87.4457,VALID,-0.0169808,VALID,17.2772,VALID,96,VALID,1.03065,
1999-12-13, 01:16:00,VALID,0,VALID,87.0464,VALID,-0.0339617,VALID,17.3965,VALID,83,VALID,0.668095,
1999-12-13, 01:17:00,VALID,0,VALID,87.0452,VALID,0.0169808,VALID,17.386,VALID,65,VALID,0.151562,
1999-12-13, 01:18:00,VALID,0,VALID,86.9193,VALID,-0.0169808,VALID,17.4088,VALID,72,VALID,0.552083,
1999-12-13, 01:19:00,VALID,0,VALID,86.7641,VALID,0,VALID,17.4737,VALID,87,VALID,0.416735,
1999-12-13, 01:20:00,VALID,0,VALID,86.6751,VALID,0,VALID,17.515,VALID,82,VALID,0.558594,
1999-12-13, 01:21:00,VALID,0,VALID,86.3979,VALID,0,VALID,17.5577,VALID,126,VALID,0.340794,
1999-12-13, 01:22:00,VALID,0,VALID,86.8137,VALID,0.0169808,VALID,17.4993,VALID,123,VALID,0.164463,
1999-12-13, 01:23:00,VALID,0,VALID,87.0197,VALID,0.0169808,VALID,17.464,VALID,123,VALID,0.0844131,
1999-12-13, 01:24:00,VALID,0,VALID,87.255,VALID,-0.0169808,VALID,17.4153,VALID,123,VALID,0.00211149,
1999-12-13, 01:25:00,VALID,0,VALID,87.3338,VALID,0,VALID,17.3772,VALID,123,VALID,0,
1999-12-13, 01:26:00,VALID,0,VALID,87.1545,VALID,0.0169808,VALID,17.3705,VALID,100,VALID,0.414955,
1999-12-13, 01:27:00,VALID,0,VALID,87.007,VALID,-0.0169808,VALID,17.3959,VALID,131,VALID,0.378378,
1999-12-13, 01:28:00,VALID,0,VALID,87.3491,VALID,0,VALID,17.3086,VALID,92,VALID,0.40004,
1999-12-13, 01:29:00,VALID,0,VALID,87.6339,VALID,0,VALID,17.2638,VALID,97,VALID,0.037642,
1999-12-13, 01:30:00,VALID,0,VALID,87.7878,VALID,0,VALID,17.2287,VALID,107,VALID,0.717311,
1999-12-13, 01:31:00,VALID,0,VALID,87.3224,VALID,0,VALID,17.3735,VALID,82,VALID,0.366571,
1999-12-13, 01:32:00,VALID,0,VALID,87.2079,VALID,0.0169808,VALID,17.3668,VALID,9,VALID,0.392525,
1999-12-13, 01:33:00,VALID,0,VALID,86.9828,VALID,0.0169808,VALID,17.4155,VALID,214,VALID,0.224609,
1999-12-13, 01:34:00,VALID,0,VALID,86.8302,VALID,0.0339617,VALID,17.3379,VALID,143,VALID,0.13742,
1999-12-13, 01:35:00,VALID,0,VALID,86.9778,VALID,0,VALID,17.2184,VALID,114,VALID,0.395508,
1999-12-13, 01:36:00,VALID,0,VALID,88.1235,VALID,0,VALID,17.1148,VALID,72,VALID,0.577232,
1999-12-13, 01:37:00,VALID,0,VALID,88.1107,VALID,0,VALID,17.1113,VALID,94,VALID,0.629639,
1999-12-13, 01:38:00,VALID,0,VALID,88.5367,VALID,0,VALID,17.0086,VALID,94,VALID,0.705659,
1999-12-13, 01:39:00,VALID,0,VALID,88.7771,VALID,0,VALID,17.0439,VALID,65,VALID,1.00098,
1999-12-13, 01:40:00,VALID,0,VALID,87.8793,VALID,0,VALID,17.2248,VALID,105,VALID,0.545397,
1999-12-13, 01:41:00,VALID,0,VALID,87.7,VALID,0.0169808,VALID,17.2408,VALID,103,VALID,0.276843,
1999-12-13, 01:42:01,VALID,0,VALID,87.5665,VALID,0,VALID,17.2544,VALID,94,VALID,0.190321,
1999-12-13, 01:43:00,VALID,0,VALID,87.7738,VALID,0.0169808,VALID,17.2408,VALID,87,VALID,0,
1999-12-13, 01:44:00,VALID,0,VALID,87.8997,VALID,0.0509425,VALID,17.2313,VALID,82,VALID,0,
1999-12-13, 01:45:00,VALID,0,VALID,87.7827,VALID,0.0169808,VALID,17.2283,VALID,97,VALID,0.283995,
1999-12-13, 01:46:00,VALID,0,VALID,87.6364,VALID,-0.0169808,VALID,17.219,VALID,111,VALID,0.386719,
1999-12-13, 01:47:00,VALID,0,VALID,87.6682,VALID,-0.0509425,VALID,17.2195,VALID,127,VALID,0.210938,
1999-12-13, 01:48:00,VALID,0,VALID,87.873,VALID,-0.118866,VALID,17.1647,VALID,155,VALID,0.0842928,
1999-12-13, 01:49:00,VALID,0,VALID,87.8806,VALID,-0.0849042,VALID,17.0939,VALID,68,VALID,0.233456,
1999-12-13, 01:50:00,VALID,0,VALID,88.1731,VALID,-0.101885,VALID,17.0551,VALID,25,VALID,0.212941,
1999-12-13, 01:51:00,VALID,0,VALID,88.3994,VALID,-0.101885,VALID,17.042,VALID,94,VALID,0.248779,
1999-12-13, 01:52:00,VALID,0,VALID,88.3727,VALID,-0.101885,VALID,17.0781,VALID,104,VALID,0.60473,
1999-12-13, 01:53:00,VALID,0,VALID,88.1044,VALID,-0.101885,VALID,17.0583,VALID,118,VALID,0.372738,
1999-12-13, 01:54:00,VALID,0,VALID,88.6804,VALID,-0.135847,VALID,16.9452,VALID,110,VALID,0.662109,
1999-12-13, 01:55:00,VALID,0,VALID,88.702,VALID,-0.101885,VALID,16.8797,VALID,87,VALID,0.795873,
1999-12-13, 01:56:00,VALID,0,VALID,89.2336,VALID,-0.101885,VALID,16.7804,VALID,102,VALID,1.21157,
1999-12-13, 01:57:00,VALID,0,VALID,89.9152,VALID,-0.101885,VALID,16.6902,VALID,94,VALID,0.852829,
1999-12-13, 01:58:00,VALID,0,VALID,90.242,VALID,-0.118866,VALID,16.7261,VALID,77,VALID,0.730469,
1999-12-13, 01:59:00,VALID,0,VALID,89.9889,VALID,-0.118866,VALID,16.7679,VALID,104,VALID,0.260485,
1999-12-13, 02:00:00,VALID,0,VALID,89.5693,VALID,-0.0849042,VALID,16.7576,VALID,109,VALID,0.237542,
1999-12-13, 02:01:00,VALID,0,VALID,89.9482,VALID,-0.101885,VALID,16.7322,VALID,130,VALID,0,
1999-12-13, 02:02:00,VALID,0,VALID,89.9012,VALID,-0.0339617,VALID,16.6988,VALID,150,VALID,0,
1999-12-13, 02:03:00,VALID,0,VALID,90.317,VALID,0.0169808,VALID,16.6534,VALID,187,VALID,0,
1999-12-13, 02:04:00,VALID,0,VALID,91.0304,VALID,0,VALID,16.5726,VALID,194,VALID,0,
1999-12-13, 02:05:00,VALID,0,VALID,91.1245,VALID,0,VALID,16.5631,VALID,152,VALID,0,
1999-12-13, 02:06:00,VALID,0,VALID,90.2852,VALID,0,VALID,16.5306,VALID,112,VALID,0,
1999-12-13, 02:07:00,VALID,0,VALID,91.1906,VALID,0.0169808,VALID,16.4983,VALID,89,VALID,0.206292,
1999-12-13, 02:08:00,VALID,0,VALID,91.4424,VALID,-0.0339617,VALID,16.5696,VALID,109,VALID,0.496711,
1999-12-13, 02:09:00,VALID,0,VALID,90.9808,VALID,0.0339617,VALID,16.5793,VALID,145,VALID,0.495046,
1999-12-13, 02:10:00,VALID,0,VALID,90.9655,VALID,-0.0169808,VALID,16.5147,VALID,179,VALID,0.315578,
1999-12-13, 02:11:00,VALID,0,VALID,91.8544,VALID,0,VALID,16.4503,VALID,224,VALID,0.535773,
1999-12-13, 02:12:00,VALID,0,VALID,92.3592,VALID,-0.0169808,VALID,16.4113,VALID,229,VALID,0.45857,
1999-12-13, 02:13:00,VALID,0,VALID,92.1901,VALID,0.0169808,VALID,16.4052,VALID,222,VALID,0.234776,
1999-12-13, 02:14:00,VALID,0,VALID,92.307,VALID,0,VALID,16.3665,VALID,174,VALID,0.527588,
1999-12-13, 02:15:00,VALID,0,VALID,91.8162,VALID,0,VALID,16.3079,VALID,121,VALID,0.955929,
1999-12-13, 02:16:00,VALID,0,VALID,92.3668,VALID,0,VALID,16.2756,VALID,114,VALID,0.842694,
1999-12-13, 02:17:00,VALID,0,VALID,92.8004,VALID,0,VALID,16.295,VALID,115,VALID,0.127841,
1999-12-13, 02:18:00,VALID,0,VALID,92.3337,VALID,0.0169808,VALID,16.3148,VALID,102,VALID,0.293997,
1999-12-13, 02:19:00,VALID,0,VALID,92.8513,VALID,0.0169808,VALID,16.3273,VALID,94,VALID,0.447846,
1999-12-13, 02:20:00,VALID,0,VALID,92.3083,VALID,0,VALID,16.4212,VALID,85,VALID,0.888021,
1999-12-13, 02:21:00,VALID,0,VALID,91.7679,VALID,0,VALID,16.4272,VALID,80,VALID,0.983319,
1999-12-13, 02:22:00,VALID,0,VALID,92.0896,VALID,0,VALID,16.4496,VALID,86,VALID,1.07532,
1999-12-13, 02:23:00,VALID,0,VALID,92.1799,VALID,0.0169808,VALID,16.4601,VALID,78,VALID,0.939062,
1999-12-13, 02:24:00,VALID,0,VALID,92.5245,VALID,0.0169808,VALID,16.5276,VALID,86,VALID,0.577009,
1999-12-13, 02:25:00,VALID,0,VALID,91.8963,VALID,0,VALID,16.5308,VALID,78,VALID,0.632612,
1999-12-13, 02:26:00,VALID,0,VALID,92.1481,VALID,0.0679233,VALID,16.5375,VALID,83,VALID,1.50126,
1999-12-13, 02:27:00,VALID,0,VALID,91.6979,VALID,0.0169808,VALID,16.5883,VALID,79,VALID,1.06445,
1999-12-13, 02:28:00,VALID,0,VALID,91.5759,VALID,0.0169808,VALID,16.5791,VALID,77,VALID,0.819111,
1999-12-13, 02:29:00,VALID,0,VALID,91.9815,VALID,-0.0169808,VALID,16.6215,VALID,72,VALID,0.746299,
1999-12-13, 02:30:00,VALID,0,VALID,91.5733,VALID,0,VALID,16.6853,VALID,74,VALID,0.799479,
1999-12-13, 02:31:00,VALID,0,VALID,90.9591,VALID,0.0509425,VALID,16.6691,VALID,82,VALID,0.798353,
1999-12-13, 02:32:00,VALID,0,VALID,91.3444,VALID,0.0169808,VALID,16.6144,VALID,89,VALID,1.35357,
1999-12-13, 02:33:00,VALID,0,VALID,91.1639,VALID,0.0509425,VALID,16.6338,VALID,88,VALID,1.54421,
1999-12-13, 02:34:00,VALID,0,VALID,91.1435,VALID,0,VALID,16.6338,VALID,69,VALID,1.24113,
1999-12-13, 02:35:00,VALID,0,VALID,91.9752,VALID,0,VALID,16.754,VALID,64,VALID,0.892064,
1999-12-13, 02:36:00,VALID,0,VALID,91.2847,VALID,0.0169808,VALID,16.8636,VALID,68,VALID,0.974777,
1999-12-13, 02:37:00,VALID,0,VALID,89.8999,VALID,0.0339617,VALID,16.8533,VALID,350,VALID,0.453547,
1999-12-13, 02:38:01,VALID,0,VALID,90.4683,VALID,0,VALID,16.8276,VALID,71,VALID,0.622596,
1999-12-13, 02:39:00,VALID,0,VALID,90.3157,VALID,0.0339617,VALID,16.8731,VALID,90,VALID,1.04924,
1999-12-13, 02:40:00,VALID,0,VALID,90.0741,VALID,0.0339617,VALID,16.9118,VALID,94,VALID,1.3199,
1999-12-13, 02:41:00,VALID,0,VALID,89.9126,VALID,0.0169808,VALID,16.883,VALID,93,VALID,0.640625,
1999-12-13, 02:42:00,VALID,0,VALID,90.495,VALID,0.0169808,VALID,16.8309,VALID,88,VALID,0.864231,
1999-12-13, 02:43:00,VALID,0,VALID,90.8371,VALID,0.0509425,VALID,16.7856,VALID,88,VALID,1.2513,
1999-12-13, 02:44:00,VALID,0,VALID,90.7175,VALID,0.0169808,VALID,16.8145,VALID,74,VALID,1.2474,
1999-12-13, 02:45:00,VALID,0,VALID,90.9935,VALID,0.0169808,VALID,16.8597,VALID,57,VALID,1.05664,
1999-12-13, 02:46:00,VALID,0,VALID,90.5929,VALID,0.0339617,VALID,16.9543,VALID,87,VALID,1.46339,
1999-12-13, 02:47:00,VALID,0,VALID,90.0614,VALID,-0.0339617,VALID,17.0157,VALID,77,VALID,1.19409,
1999-12-13, 02:48:01,VALID,0,VALID,89.9558,VALID,-0.0849042,VALID,17.0422,VALID,73,VALID,0.595439,
1999-12-13, 02:49:01,VALID,0,VALID,89.5947,VALID,-0.0339617,VALID,17.048,VALID,81,VALID,0.552246,
1999-12-13, 02:50:00,VALID,0,VALID,89.7473,VALID,-0.0509425,VALID,17.1038,VALID,78,VALID,1.07791,
1999-12-13, 02:51:00,VALID,0,VALID,89.348,VALID,-0.0679233,VALID,17.1421,VALID,91,VALID,0.908253,
1999-12-13, 02:52:00,VALID,0,VALID,89.3442,VALID,-0.0679233,VALID,17.1296,VALID,95,VALID,0.93099,
1999-12-13, 02:53:00,VALID,0,VALID,89.3022,VALID,-0.0679233,VALID,17.0519,VALID,102,VALID,1.22817,
1999-12-13, 02:54:00,VALID,0,VALID,89.877,VALID,-0.101885,VALID,16.9803,VALID,55,VALID,0.92296,
1999-12-13, 02:55:00,VALID,0,VALID,90.3793,VALID,-0.101885,VALID,16.9674,VALID,317,VALID,0.342694,
1999-12-13, 02:56:00,VALID,0,VALID,90.2852,VALID,-0.0849042,VALID,17.0228,VALID,67,VALID,0.892187,
1999-12-13, 02:57:00,VALID,0,VALID,89.9737,VALID,-0.101885,VALID,17.0258,VALID,61,VALID,0.905828,
1999-12-13, 02:58:00,VALID,0,VALID,90.1733,VALID,-0.0339617,VALID,17.0749,VALID,85,VALID,1.5331,
1999-12-13, 02:59:00,VALID,0,VALID,89.6723,VALID,-0.0849042,VALID,17.0682,VALID,88,VALID,1.20267,
1999-12-13, 03:00:01,VALID,0,VALID,90.1606,VALID,-0.0679233,VALID,16.9838,VALID,74,VALID,0.999599,
1999-12-13, 03:01:00,VALID,0,VALID,90.4187,VALID,-0.0679233,VALID,16.9642,VALID,90,VALID,1.14233,
1999-12-13, 03:02:00,VALID,0,VALID,90.4721,VALID,0.0169808,VALID,16.9019,VALID,69,VALID,0.95038,
1999-12-13, 03:03:00,VALID,0,VALID,91.0596,VALID,0,VALID,16.8918,VALID,67,VALID,0.872533,
1999-12-13, 03:04:00,VALID,0,VALID,91.0799,VALID,0.0339617,VALID,16.9116,VALID,70,VALID,0.635634,
1999-12-13, 03:05:00,VALID,0,VALID,91.0405,VALID,0.0169808,VALID,16.9209,VALID,79,VALID,0.719551,
1999-12-13, 03:06:00,VALID,0,VALID,90.832,VALID,0.0169808,VALID,16.9433,VALID,80,VALID,0.778505,
1999-12-13, 03:07:00,VALID,0,VALID,90.5192,VALID,0.0509425,VALID,16.9599,VALID,83,VALID,0.877956,
1999-12-13, 03:08:00,VALID,0,VALID,90.4925,VALID,0,VALID,16.989,VALID,69,VALID,0.588281,
1999-12-13, 03:09:00,VALID,0,VALID,90.317,VALID,0.0339617,VALID,16.9857,VALID,77,VALID,0.927426,
1999-12-13, 03:10:01,VALID,0,VALID,90.3259,VALID,0,VALID,17.0598,VALID,89,VALID,1.17652,
1999-12-13, 03:11:01,VALID,0,VALID,89.9508,VALID,0.0169808,VALID,17.0857,VALID,91,VALID,1.12695,
1999-12-13, 03:12:00,VALID,0,VALID,89.9495,VALID,0.0339617,VALID,17.0958,VALID,85,VALID,0.978885,
1999-12-13, 03:13:00,VALID,0,VALID,90.0665,VALID,0.0339617,VALID,17.0374,VALID,86,VALID,0.812711,
1999-12-13, 03:14:00,VALID,0,VALID,90.3017,VALID,0,VALID,17.009,VALID,86,VALID,0.467041,
1999-12-13, 03:15:00,VALID,0,VALID,90.5204,VALID,0,VALID,16.9472,VALID,83,VALID,0.0849095,
1999-12-13, 03:16:00,VALID,0,VALID,90.3284,VALID,0.0339617,VALID,16.9187,VALID,110,VALID,0.190972,
1999-12-13, 03:17:00,VALID,0,VALID,90.4696,VALID,-0.0169808,VALID,16.8638,VALID,167,VALID,0.114654,
1999-12-13, 03:18:00,VALID,0,VALID,90.8091,VALID,-0.101885,VALID,16.7929,VALID,168,VALID,0.0945724,
1999-12-13, 03:19:00,VALID,0,VALID,91.1779,VALID,-0.0339617,VALID,16.7479,VALID,150,VALID,0.290777,
1999-12-13, 03:20:00,VALID,0,VALID,89.1077,VALID,-0.0679233,VALID,16.6288,VALID,133,VALID,0.699811,
1999-12-13, 03:21:00,VALID,0,VALID,91.5517,VALID,-0.0849042,VALID,16.4061,VALID,142,VALID,0.836965,
1999-12-13, 03:22:01,VALID,0,VALID,93.6397,VALID,-0.0679233,VALID,16.3249,VALID,150,VALID,0.548295,
1999-12-13, 03:23:00,VALID,0,VALID,93.29,VALID,-0.101885,VALID,16.3317,VALID,137,VALID,0.450521,
1999-12-13, 03:24:00,VALID,0,VALID,93.2061,VALID,-0.101885,VALID,16.2895,VALID,143,VALID,0.213379,
1999-12-13, 03:25:00,VALID,0,VALID,93.8381,VALID,-0.0849042,VALID,16.2637,VALID,190,VALID,0.238982,
1999-12-13, 03:26:00,VALID,0,VALID,94.3136,VALID,-0.0679233,VALID,16.2142,VALID,192,VALID,0.0443412,
1999-12-13, 03:27:00,VALID,0,VALID,93.8889,VALID,-0.0509425,VALID,16.2249,VALID,145,VALID,0.602983,
1999-12-13, 03:28:00,VALID,0,VALID,92.4584,VALID,-0.101885,VALID,16.1997,VALID,118,VALID,0.259046,
1999-12-13, 03:29:00,VALID,0,VALID,93.1628,VALID,-0.0849042,VALID,16.1314,VALID,167,VALID,0.0323057,
1999-12-13, 03:30:00,VALID,0,VALID,93.3917,VALID,-0.0849042,VALID,16.0828,VALID,167,VALID,0,
1999-12-13, 03:31:00,VALID,0,VALID,94.1331,VALID,-0.0849042,VALID,16.0466,VALID,167,VALID,0,
1999-12-13, 03:32:00,VALID,0,VALID,94.9545,VALID,-0.0509425,VALID,16.0341,VALID,159,VALID,0,
1999-12-13, 03:33:01,VALID,0,VALID,95.0143,VALID,-0.0849042,VALID,16.0731,VALID,163,VALID,0,
1999-12-13, 03:34:00,VALID,0,VALID,95.0524,VALID,-0.101885,VALID,16.1121,VALID,176,VALID,0,
1999-12-13, 03:35:00,VALID,0,VALID,94.9507,VALID,-0.0339617,VALID,16.1504,VALID,182,VALID,0,
1999-12-13, 03:36:00,VALID,0,VALID,94.7129,VALID,-0.0679233,VALID,16.1732,VALID,182,VALID,0,
1999-12-13, 03:37:00,VALID,0,VALID,94.8782,VALID,-0.0849042,VALID,16.2015,VALID,170,VALID,0,
1999-12-13, 03:38:00,VALID,0,VALID,94.0339,VALID,-0.0679233,VALID,16.3158,VALID,127,VALID,0.658253,
1999-12-13, 03:39:00,VALID,0,VALID,92.4571,VALID,-0.0679233,VALID,16.3291,VALID,136,VALID,0.840049,
1999-12-13, 03:40:00,VALID,0,VALID,92.939,VALID,-0.0679233,VALID,16.1989,VALID,142,VALID,0.377821,
1999-12-13, 03:41:00,VALID,0,VALID,94.3442,VALID,-0.101885,VALID,16.1672,VALID,138,VALID,0.551098,
1999-12-13, 03:42:00,VALID,0,VALID,94.1318,VALID,-0.0679233,VALID,16.1795,VALID,126,VALID,0.749199,
1999-12-13, 03:43:00,VALID,0,VALID,94.3696,VALID,-0.0679233,VALID,16.2021,VALID,133,VALID,0.658918,
1999-12-13, 03:44:01,VALID,0,VALID,93.8457,VALID,-0.0679233,VALID,16.2225,VALID,135,VALID,0.467694,
1999-12-13, 03:45:00,VALID,0,VALID,94.2653,VALID,-0.0679233,VALID,16.1997,VALID,138,VALID,0.568257,
1999-12-13, 03:46:00,VALID,0,VALID,94.3709,VALID,-0.0509425,VALID,16.1855,VALID,131,VALID,0.483482,
1999-12-13, 03:47:00,VALID,0,VALID,94.1661,VALID,-0.0849042,VALID,16.1926,VALID,135,VALID,0.375,
1999-12-13, 03:48:00,VALID,0,VALID,93.8177,VALID,-0.101885,VALID,16.1767,VALID,143,VALID,0.295072,
1999-12-13, 03:49:00,VALID,0,VALID,94.1165,VALID,-0.0849042,VALID,16.131,VALID,142,VALID,0.320549,
1999-12-13, 03:50:00,VALID,0,VALID,95.0435,VALID,-0.0849042,VALID,16.1379,VALID,141,VALID,0.481291,
1999-12-13, 03:51:00,VALID,0,VALID,94.6544,VALID,-0.101885,VALID,16.1389,VALID,147,VALID,0.634868,
1999-12-13, 03:52:00,VALID,0,VALID,95.0283,VALID,-0.101885,VALID,16.0896,VALID,139,VALID,0.498311,
1999-12-13, 03:53:00,VALID,0,VALID,94.8592,VALID,-0.101885,VALID,16.0573,VALID,149,VALID,0.314453,
1999-12-13, 03:54:00,VALID,0,VALID,95.2635,VALID,-0.101885,VALID,16.0509,VALID,209,VALID,0.314704,
1999-12-13, 03:55:01,VALID,0,VALID,95.8205,VALID,-0.101885,VALID,16.0701,VALID,235,VALID,0.543701,
1999-12-13, 03:56:00,VALID,0,VALID,95.5852,VALID,-0.0849042,VALID,16.1054,VALID,225,VALID,0.634375,
1999-12-13, 03:57:00,VALID,0,VALID,95.3538,VALID,-0.0679233,VALID,16.1478,VALID,194,VALID,0.583496,
1999-12-13, 03:58:00,VALID,0,VALID,93.0967,VALID,-0.0509425,VALID,16.1252,VALID,149,VALID,0.664907,
1999-12-13, 03:59:00,VALID,0,VALID,94.6506,VALID,-0.101885,VALID,16.0707,VALID,165,VALID,0.643311,
1999-12-13, 04:00:00,VALID,0,VALID,95.0919,VALID,-0.101885,VALID,16.0739,VALID,157,VALID,0.573269,
1999-12-13, 04:01:00,VALID,0,VALID,94.5896,VALID,-0.101885,VALID,16.0349,VALID,168,VALID,0.49399,
1999-12-13, 04:02:00,VALID,0,VALID,94.6341,VALID,-0.0509425,VALID,15.9279,VALID,169,VALID,0.157769,
1999-12-13, 04:03:00,VALID,0,VALID,95.8065,VALID,0,VALID,15.8724,VALID,170,VALID,0.282652,
1999-12-13, 04:04:01,VALID,0,VALID,97.0361,VALID,0.0169808,VALID,15.9047,VALID,170,VALID,0.363064,
1999-12-13, 04:05:00,VALID,0,VALID,96.5847,VALID,-0.0169808,VALID,15.9112,VALID,177,VALID,0.259502,